Location: Bílinka
(49.3579°N, 14.3767°E)
Time: 01:45:53
(UTC+00:00)

CZ-4C R/B - Pass Details

Date: 28 January 2023
Orbit: 456 x 611 km, 98.1° (Epoch: 30 March)

Event Time Altitude Azimuth Distance (km) Brightness Sun altitude
Rises 17:19:48 0° 14° (NNE) 2,797 6.7 -14.4°
Reaches altitude 10° 17:22:00 10° 16° (NNE) 1,868 5.8 -14.7°
Maximum altitude 17:26:03 81° 104° (ESE) 556 3.2 -15.4°
Drops below altitude 10° 17:29:51 10° 192° (SSW) 1,755 6.2 -16.0°
Sets 17:31:53 0° 193° (SSW) 2,611 7.1 -16.3°
